Weather in Klimovskoe

Russia / Vologda Oblast     59°20′50″N   38°01′01″E
temp.,
°C
wind,
m/s
gust,
m/s
humid.,
%
clouds,
%
prec.,
mm/h
press.,
hPa
HPBL,
m
4 march, thu
thu400:00−2wsw5129496 0.4 996589
03:00−1wsw6129798 1.1 993742
06:00−3wnw6138997 0.3 992665
09:00−5nw7148797 0.3 995919
12:00−4nnw6987100 0.1 997904
15:00−4nw4784100 0.3 999979
18:00−8nw349161 0.1 100052
21:00−11nw339140 0.1 100127
5 march, fri
fri500:00−10wnw239664 0.2 100186
03:00−13nw239563 0.3 100223
06:00−15nw33960 0.0 100328
09:00−11nw359544 0.1 1005201
12:00−8nw3590100 0.1 1007607
15:00−9nnw4684100 0.3 1008888
18:00−13nw2392100 0.1 101047
21:00−17nw349480 0.1 101346
6 march, sat
sat600:00−19nw33970 0.0 101431
03:00−20wnw23970 0.0 101520
06:00−17w349658 0.0 101585
09:00−14w479577 0.1 1015263
12:00−10w4694100 0.1 1014391
15:00−7wsw4689100 0.1 1012639
18:00−10sw3592100 0.1 101097
21:00−10ssw4119186 0.1 1006298
7 march, sun
sun700:00−8ssw71394100 0.3 1000794
03:00−6ssw81494100 1.6 994919
06:00−4ssw71395100 1.9 989800
09:00−3sw61295100 3.6 987829
12:00−7wnw5980100 1.1 988865
15:00−7wnw367283 1.1 989882
18:00−11w22820 0.0 99121
21:00−15n22860 0.0 99220
8 march, mon
mon800:00−16nw33900 0.0 99326
03:00−16wnw48930 0.0 995133
06:00−13nnw4109485 0.0 997357
09:00−11n6119093 0.1 1000728
12:00−11nnw6988100 0.1 1004772
15:00−12nnw61089100 0.2 1007714
18:00−14nnw51290100 0.1 1010624
21:00−16n51291100 0.1 1014499